Flag for Norway

Past Weather in Sandnes, Norway — Yesterday and Last 2 Weeks

Now
54 °F

Drizzle. Overcast.


Feels Like: 53 °F
Forecast: 62 / 56 °F
Wind: 3 mph from Northeast

Location: Stavanger / Sola
Current Time: Sep 30, 2020 at 3:10:17 am
Latest Report: Sep 30, 2020 at 1:50 am
Visibility: 2 mi
Pressure29.89 "Hg
Humidity: 100%
Dew Point: 54 °F
Location of SandnesLocation

Past Weather in Sandnes — Graph

°F

Sandnes Temperature Yesterday

Maximum temperature yesterday: 59 °F (at 1:20 pm)
Minimum temperature yesterday: 55 °F (at 1:20 am)
Average temperature yesterday: 57 °F

High & Low Weather Summary for the Past Weeks

 TemperatureHumidityPressure
High64 °F (Sep 15, 2:20 pm)100% (Sep 15, 5:50 am)30.48 "Hg (Sep 15, 5:50 am)
Low45 °F (Sep 17, 1:20 am)48% (Sep 17, 11:50 am)28.97 "Hg (Sep 24, 11:50 am)
Average55 °F84%29.92 "Hg
* Reported Sep 15 1:20 am — Sep 30 1:50 am, Sandnes. Weather by CustomWeather, © 2020

Note: Actual official high and low records may vary slightly from our data, if they occured in-between our weather recording intervals... More about our weather records

Sandnes Weather History for the Previous 24 Hours

Scroll right to see more
 ConditionsComfort  
Time TempWeatherWind HumidityBarometerVisibility
1:50 am
Wed, Sep 30
54 °FDrizzle. Overcast.3 mph100%29.89 "Hg2 mi
1:20 am54 °FDrizzle. Overcast.3 mph100%29.89 "Hg3 mi
12:50 am54 °FDrizzle. Overcast.3 mph100%29.89 "Hg3 mi
12:20 am54 °FDrizzle. Overcast.2 mph100%29.89 "Hg3 mi
11:50 pm
Tue, Sep 29
55 °FDrizzle. Overcast.3 mph94%29.92 "Hg2 mi
11:20 pm55 °FDrizzle. Overcast.3 mph94%29.92 "Hg3 mi
10:50 pm55 °FDrizzle. Overcast.No wind94%29.92 "Hg3 mi
10:20 pm55 °FPassing clouds.1 mph94%29.92 "Hg2 mi
9:50 pm55 °FLight rain. Partly cloudy.2 mph94%29.92 "Hg4 mi
9:20 pm55 °FLight rain. Passing clouds.1 mph94%29.92 "Hg6 mi
8:50 pm55 °FLight rain. Passing clouds.2 mph94%29.92 "Hg6 mi
8:20 pm57 °FLight rain. Partly cloudy.6 mph88%29.92 "HgN/A
7:50 pm57 °FPassing clouds.6 mph88%29.92 "HgN/A
7:20 pm57 °FPassing clouds.7 mph88%29.92 "HgN/A
6:50 pm59 °FBroken clouds.3 mph82%29.92 "HgN/A
6:20 pm59 °FBroken clouds.1 mph88%29.92 "HgN/A
5:50 pm59 °FPartly sunny.2 mph82%29.92 "HgN/A
5:20 pm59 °FBroken clouds.5 mph88%29.89 "HgN/A
4:50 pm59 °FPartly sunny.6 mph88%29.89 "HgN/A
4:20 pm59 °FBroken clouds.6 mph88%29.89 "HgN/A
3:50 pm59 °FLight rain. Partly sunny.10 mph88%29.89 "HgN/A
3:20 pm59 °FLight rain. Partly sunny.8 mph88%29.89 "HgN/A
2:50 pm59 °FPartly sunny.8 mph88%29.89 "HgN/A
2:20 pm59 °FBroken clouds.8 mph88%29.89 "HgN/A
1:50 pm59 °FBroken clouds.8 mph88%29.89 "HgN/A
1:20 pm59 °FLight rain. Partly sunny.8 mph94%29.89 "HgN/A
12:50 pm57 °FLight rain. Broken clouds.7 mph100%29.89 "HgN/A
12:20 pm57 °FLight rain. Partly sunny.5 mph94%29.89 "Hg5 mi
11:50 am57 °FLight rain. Partly sunny.3 mph94%29.89 "Hg4 mi
11:20 am57 °FLight rain. Partly sunny.5 mph94%29.89 "Hg4 mi
10:50 am57 °FLight rain. Partly sunny.No wind94%29.89 "Hg4 mi
10:20 am55 °FLight rain. Partly sunny.2 mph100%29.89 "Hg4 mi
9:50 am55 °FLight rain. Partly sunny.5 mph100%29.89 "Hg4 mi
8:50 am55 °FDrizzle. Partly sunny.No wind100%29.89 "Hg3 mi
8:20 am55 °FDrizzle. Partly sunny.No wind100%29.89 "HgN/A
7:50 am55 °FDrizzle. Partly sunny.3 mph100%29.89 "Hg6 mi
7:20 am55 °FPartly cloudy.1 mph100%29.86 "Hg4 mi
6:50 am55 °FPassing clouds.2 mph100%29.86 "Hg6 mi
6:20 am55 °FSprinkles. Passing clouds.5 mph100%29.86 "HgN/A
5:50 am55 °FSprinkles. Passing clouds.3 mph100%29.86 "HgN/A
5:20 am55 °FSprinkles. Passing clouds.3 mph100%29.86 "HgN/A
4:50 am55 °FSprinkles. Passing clouds.3 mph100%29.86 "HgN/A
3:50 am55 °FPassing clouds.2 mph100%29.86 "HgN/A
Weather by CustomWeather, © 2020

See weather overview